Weather History for Jackson, KY

Change the Weather History Date:

Monday, May 5, 2014

  Actual Average Record
Temperature  
Mean Temperature 69 °F 62 °F  
Max Temperature 86 °F 73 °F 86 °F (2014)
Min Temperature 52 °F 52 °F 34 °F (2011)
Degree Days  
Heating Degree Days 0 4  
Month to date heating degree days 27 24  
Since 1 July heating degree days 4457 4145  
Cooling Degree Days 4 2  
Month to date cooling degree days 6 10  
Year to date cooling degree days 45 56  
Growing Degree Days 18 (Base 50)    
Moisture  
Dew Point 45 °F    
Average Humidity 43    
Maximum Humidity 59    
Minimum Humidity 27    
Precipitation  
Precipitation 0.00 in 0.16 in 1.21 in (2003)
Month to date precipitation T 0.78  
Year to date precipitation 18.56 16.09  
Snow  
Snow 0.00 in 0.00 in - ()
Month to date snowfall 0.0 0.0  
Since 1 July snowfall 38.9 23.5  
Snow Depth 0.00 in    
Sea Level Pressure  
Sea Level Pressure 29.90 in    
Wind  
Wind Speed 3 mph (WSW)    
Max Wind Speed 15 mph    
Max Gust Speed 25 mph    
Visibility 10 miles    
Events      
T = Trace of Precipitation, MM = Missing Value Source: NWS Daily Summary

Daily Weather History Graph

Daily Weather History Graph

Search for Another Location

Airport:

Trip Planner

Search our weather history database for the weather conditions in past years. The results will help you decide how hot, cold, wet, or windy it might be!

Date:

Astronomy

May. 05, 2014 Rise Set
Actual Time 6:33 AM EDT 8:27 PM EDT
Civil Twilight 6:04 AM EDT 8:55 PM EDT
Nautical Twilight 5:30 AM EDT 9:30 PM EDT
Astronomical Twilight 4:53 AM EDT 10:07 PM EDT
Moon 11:51 AM EDT (5/5) 1:10 AM EDT (5/5)
Length of Visible Light 14h 50m
Length of Day
13h 53m
Waxing Crescent, 36% of the Moon is Illuminated
May 5
Waxing Crescent
May 6
First Quarter
May 14
Full
May 21
Last Quarter
May 28
New

Hourly Weather History & Observations

Time (EDT) Temp. Heat Index Dew Point Humidity Pressure Visibility Wind Dir Wind Speed Gust Speed Precip Events Conditions
12:53 AM 62.1 °F - 44.1 °F 52% 29.98 in 10.0 mi Calm Calm - N/A   Clear
1:53 AM 59.0 °F - 42.8 °F 55% 30.01 in 10.0 mi Calm Calm - N/A   Clear
2:53 AM 57.0 °F - 42.1 °F 57% 29.96 in 10.0 mi Calm Calm - N/A   Clear
3:53 AM 55.0 °F - 41.0 °F 59% 29.97 in 10.0 mi Calm Calm - N/A   Clear
4:53 AM 54.0 °F - 39.9 °F 59% 29.96 in 10.0 mi Variable 4.6 mph - N/A   Clear
5:53 AM 53.1 °F - 37.9 °F 57% 29.96 in 10.0 mi Calm Calm - N/A   Clear
6:53 AM 53.1 °F - 37.9 °F 57% 29.96 in 10.0 mi Calm Calm - N/A   Clear
7:53 AM 53.1 °F - 39.0 °F 59% 29.97 in 10.0 mi Variable 3.5 mph - N/A   Clear
8:53 AM 57.0 °F - 39.9 °F 53% 29.97 in 10.0 mi Variable 3.5 mph - N/A   Clear
9:53 AM 61.0 °F - 44.1 °F 54% 29.95 in 10.0 mi Calm Calm - N/A   Clear
10:53 AM 66.9 °F - 46.9 °F 49% 29.94 in 10.0 mi Variable 3.5 mph - N/A   Clear
11:53 AM 73.0 °F - 51.1 °F 46% 29.92 in 10.0 mi Variable 4.6 mph - N/A   Clear
12:53 PM 77.0 °F - 52.0 °F 42% 29.90 in 10.0 mi Variable 4.6 mph - N/A   Clear
1:53 PM 80.6 °F 80.3 °F 53.6 °F 39% 29.90 in 10.0 mi Calm Calm - N/A   Clear
2:53 PM 84.9 °F - 50.0 °F 30% 29.84 in 10.0 mi SW 11.5 mph 21.9 mph N/A   Clear
3:53 PM 84.9 °F - 51.1 °F 31% 29.82 in 10.0 mi Variable 5.8 mph - N/A   Clear
4:53 PM 84.0 °F - 46.9 °F 27% 29.80 in 10.0 mi North - - N/A   Clear
5:53 PM 80.1 °F - 45.0 °F 29% 29.79 in 10.0 mi North - - N/A   Clear
6:53 PM 82.0 °F - 46.9 °F 29% 29.79 in 10.0 mi Variable 4.6 mph - N/A   Clear
7:53 PM 79.0 °F - 46.0 °F 31% 29.80 in 10.0 mi Calm Calm - N/A   Clear
8:53 PM 75.0 °F - 46.9 °F 37% 29.81 in 10.0 mi Calm Calm - N/A   Clear
9:53 PM 73.9 °F - 48.0 °F 40% 29.82 in 10.0 mi WSW 5.8 mph - N/A   Clear
10:53 PM 72.0 °F - 48.9 °F 44% 29.82 in 10.0 mi WSW 3.5 mph - N/A   Clear
11:53 PM 71.6 °F - 48.2 °F 43% 29.86 in 10.0 mi Variable 4.6 mph - N/A   Clear